H1 CPF 2 NER 2025 11 21 9 325 01 glonass129 H2 1106402 9129 37868 2025 11 21 0 0 0 2025 11 24 23 45 0 900 1 1 0 0 0 1 H9 10 0 61000 0.00000 0 -11816804.287 6427526.506 21698332.021 10 0 61000 900.00000 0 -14303555.121 5702968.298 20355407.828 10 0 61000 1800.00000 0 -16654197.987 5210178.690 18617879.670 10 0 61000 2700.00000 0 -18803468.872 4934342.262 16519143.986 10 0 61000 3600.00000 0 -20691772.123 4849165.487 14099655.822 10 0 61000 4500.00000 0 -22267521.532 4918166.003 11406168.215 10 0 61000 5400.00000 0 -23489168.399 5096404.888 8490843.612 10 0 61000 6300.00000 0 -24326830.318 5332590.169 5410252.883 10 0 61000 7200.00000 0 -24763450.462 5571463.393 2224280.361 10 0 61000 8100.00000 0 -24795436.425 5756368.185 -1005044.138 10 0 61000 9000.00000 0 -24432749.523 5831891.074 -4214763.132 10 0 61000 9900.00000 0 -23698438.817 5746460.872 -7342234.220 10 0 61000 10800.00000 0 -22627638.156 5454793.980 -10326371.813 10 0 61000 11700.00000 0 -21266067.839 4920079.033 -13108861.542 10 0 61000 12600.00000 0 -19668104.261 4115805.284 -15635321.302 10 0 61000 13500.00000 0 -17894499.820 3027154.296 -17856384.050 10 0 61000 14400.00000 0 -16009850.657 1651893.525 -19728679.255 10 0 61000 15300.00000 0 -14079920.751 732.013 -21215692.231 10 0 61000 16200.00000 0 -12168936.879 -1902878.169 -22288483.570 10 0 61000 17100.00000 0 -10336969.881 -4023486.962 -22926254.160 10 0 61000 18000.00000 0 -8637513.504 -6314906.520 -23116744.870 10 0 61000 18900.00000 0 -7115362.981 -8721933.062 -22856463.720 10 0 61000 19800.00000 0 -5804882.108 -11182457.316 -22150737.162 10 0 61000 20700.00000 0 -4728730.381 -13629874.086 -21013585.823 10 0 61000 21600.00000 0 -3897101.695 -15995689.167 -19467428.700 10 0 61000 22500.00000 0 -3307503.936 -18212213.916 -17542623.225 10 0 61000 23400.00000 0 -2945085.735 -20215234.560 -15276851.800 10 0 61000 24300.00000 0 -2783493.375 -21946544.980 -12714368.292 10 0 61000 25200.00000 0 -2786218.649 -23356237.969 -9905120.539 10 0 61000 26100.00000 0 -2908378.045 -24404660.634 -6903767.092 10 0 61000 27000.00000 0 -3098845.911 -25063954.078 -3768608.182 10 0 61000 27900.00000 0 -3302649.992 -25319115.255 -560452.225 10 0 61000 28800.00000 0 -3463527.284 -25168539.016 2658559.918 10 0 61000 29700.00000 0 -3526532.189 -24624020.045 5826150.333 10 0 61000 30600.00000 0 -3440587.360 -23710216.750 8881096.538 10 0 61000 31500.00000 0 -3160870.614 -22463601.216 11764398.936 10 0 61000 32400.00000 0 -2650938.573 -20930940.133 14420402.016 10 0 61000 33300.00000 0 -1884498.914 -19167370.506 16797849.272 10 0 61000 34200.00000 0 -846757.766 -17234150.058 18850853.258 10 0 61000 35100.00000 0 464713.681 -15196174.989 20539763.942 10 0 61000 36000.00000 0 2039629.776 -13119366.838 21831920.390 10 0 61000 36900.00000 0 3855173.625 -11068035.153 22702272.779 10 0 61000 37800.00000 0 5876706.923 -9102323.462 23133863.871 10 0 61000 38700.00000 0 8058979.153 -7275842.598 23118161.232 10 0 61000 39600.00000 0 10347788.677 -5633588.025 22655233.721 10 0 61000 40500.00000 0 12682029.812 -4210226.472 21753768.161 10 0 61000 41400.00000 0 14996043.993 -3028822.554 20430924.485 10 0 61000 42300.00000 0 17222180.179 -2100058.508 18712030.296 10 0 61000 43200.00000 0 19293460.340 -1421980.258 16630118.464 10 0 61000 44100.00000 0 21146240.648 -980281.616 14225314.208 10 0 61000 45000.00000 0 22722758.048 -749116.196 11544081.126 10 0 61000 45900.00000 0 23973455.583 -692404.463 8638338.589 10 0 61000 46800.00000 0 24858988.010 -765582.217 5564465.898 10 0 61000 47700.00000 0 25351821.749 -917717.613 2382211.500 10 0 61000 48600.00000 0 25437359.645 -1093907.455 -846471.888 10 0 61000 49500.00000 0 25114540.689 -1237850.767 -4058643.183 10 0 61000 50400.00000 0 24395887.104 -1294489.224 -7191615.035 10 0 61000 51300.00000 0 23306994.823 -1212600.412 -10184196.210 10 0 61000 52200.00000 0 21885487.544 -947231.321 -12977907.965 10 0 61000 53100.00000 0 20179477.910 -461865.959 -15518148.348 10 0 61000 54000.00000 0 18245600.948 269767.709 -17755279.458 10 0 61000 54900.00000 0 16146703.525 1262330.722 -19645614.458 10 0 61000 55800.00000 0 13949288.583 2518006.035 -21152283.431 10 0 61000 56700.00000 0 11720823.314 4026169.616 -22245960.117 10 0 61000 57600.00000 0 9527026.047 5763614.537 -22905434.847 10 0 61000 58500.00000 0 7429247.107 7695318.817 -23118022.573 10 0 61000 59400.00000 0 5482054.272 9775724.363 -22879798.602 10 0 61000 60300.00000 0 3731124.063 11950472.483 -22195658.516 10 0 61000 61200.00000 0 2211526.479 14158522.045 -21079202.418 10 0 61000 62100.00000 0 946473.369 16334560.382 -19552447.362 10 0 61000 63000.00000 0 -53419.468 18411604.986 -17645375.190 10 0 61000 63900.00000 0 -790328.461 20323686.403 -15395326.254 10 0 61000 64800.00000 0 -1278871.852 22008499.822 -12846252.396 10 0 61000 65700.00000 0 -1545230.825 23409914.779 -10047845.066 10 0 61000 66600.00000 0 -1625782.414 24480238.796 -7054556.775 10 0 61000 67500.00000 0 -1565304.607 25182141.661 -3924535.749 10 0 61000 68400.00000 0 -1414831.560 25490161.627 -718495.059 10 0 61000 69300.00000 0 -1229250.872 25391732.584 2501461.586 10 0 61000 70200.00000 0 -1064745.022 24887691.372 5673034.801 10 0 61000 71100.00000 0 -976184.931 23992246.047 8734922.676 10 0 61000 72000.00000 0 -1014584.896 22732408.090 11627989.957 10 0 61000 72900.00000 0 -1224725.097 21146913.455 14296391.978 10 0 61000 73800.00000 0 -1643040.495 19284677.978 16688633.281 10 0 61000 74700.00000 0 -2295863.608 17202851.356 18758542.209 10 0 61000 75600.00000 0 -3198094.044 14964549.826 20466144.603 10 0 61000 76500.00000 0 -4352350.149 12636360.312 21778421.497 10 0 61000 77400.00000 0 -5748638.548 10285717.781 22669937.730 10 0 61000 78300.00000 0 -7364556.460 7978262.454 23123330.479 10 0 61000 79200.00000 0 -9166020.202 5775284.198 23129648.932 10 0 61000 80100.00000 0 -11108491.944 3731358.140 22688538.478 10 0 61000 81000.00000 0 -13138656.600 1892267.914 21808265.223 10 0 61000 81900.00000 0 -15196482.169 293301.710 20505579.035 10 0 61000 82800.00000 0 -17217580.770 -1042008.426 18805415.902 10 0 61000 83700.00000 0 -19135774.645 -2102651.314 16740443.113 10 0 61000 84600.00000 0 -20885762.143 -2890372.679 14350453.567 10 0 61000 85500.00000 0 -22405773.466 -3419371.363 11681618.521 10 0 61001 0.00000 0 -23640105.223 -3715467.066 8785611.309 10 0 61001 900.00000 0 -24541427.437 -3814773.296 5718615.685 10 0 61001 1800.00000 0 -25072762.976 -3761930.086 2540240.885 10 0 61001 2700.00000 0 -25209056.172 -3607971.060 -687641.080 10 0 61001 3600.00000 0 -24938260.210 -3407914.803 -3902109.094 10 0 61001 4500.00000 0 -24261895.504 -3218183.672 -7040434.311 10 0 61001 5400.00000 0 -23195052.961 -3093961.106 -10041323.142 10 0 61001 6300.00000 0 -21765840.020 -3086601.787 -12846135.546 10 0 61001 7200.00000 0 -20014291.655 -3241207.191 -15400052.510 10 0 61001 8100.00000 0 -17990791.795 -3594472.138 -17653167.693 10 0 61001 9000.00000 0 -15754071.997 -4172896.336 -19561479.916 10 0 61001 9900.00000 0 -13368872.580 -4991438.919 -21087765.446 10 0 61001 10800.00000 0 -10903365.933 -6052674.722 -22202311.981 10 0 61001 11700.00000 0 -8426451.714 -7346488.997 -22883499.472 10 0 61001 12600.00000 0 -6005038.807 -8850323.895 -23118216.493 10 0 61001 13500.00000 0 -3701428.928 -10529966.081 -22902104.601 10 0 61001 14400.00000 0 -1570911.775 -12340841.608 -22239626.957 10 0 61001 15300.00000 0 340328.000 -14229762.477 -21143961.170 10 0 61001 16200.00000 0 1996905.652 -16137050.275 -19636720.037 10 0 61001 17100.00000 0 3375464.160 -17998946.540 -17747507.248 10 0 61001 18000.00000 0 4465386.283 -19750207.718 -15513318.380 10 0 61001 18900.00000 0 5268964.266 -21326775.286 -12977800.408 10 0 61001 19800.00000 0 5801023.576 -22668408.972 -10190385.527 10 0 61001 20700.00000 0 6088019.979 -23721173.085 -7205317.352 10 0 61001 21600.00000 0 6166651.157 -24439672.659 -4080589.314 10 0 61001 22500.00000 0 6082044.085 -24788947.130 -876816.459 10 0 61001 23400.00000 0 5885596.590 -24745943.859 2343937.201 10 0 61001 24300.00000 0 5632565.387 -24300511.722 5519353.185 10 0 61001 25200.00000 0 5379502.781 -23455875.007 8588052.360 10 0 61001 26100.00000 0 5181649.863 -22228569.399 11490765.817 10 0 61001 27000.00000 0 5090395.204 -20647843.955 14171461.535 10 0 61001 27900.00000 0 5150904.795 -18754554.602 16578406.658 10 0 61001 28800.00000 0 5400021.568 -16599595.251 18665146.630 10 0 61001 29700.00000 0 5864521.436 -14241931.075 20391384.194 10 0 61001 30600.00000 0 6559798.157 -11746314.253 21723743.094 10 0 61001 31500.00000 0 7489031.785 -9180775.124 22636403.265 10 0 61001 32400.00000 0 8642875.940 -6613990.472 23111596.454 10 0 61001 33300.00000 0 9999678.165 -4112635.576 23139953.341 10 0 61001 34200.00000 0 11526226.128 -1738827.436 22720695.464 10 0 61001 35100.00000 0 13178991.063 452236.898 21861667.619 10 0 61001 36000.00000 0 14905819.553 2414350.466 20579208.814 10 0 61001 36900.00000 0 16648006.067 4111989.905 18897862.453 10 0 61001 37800.00000 0 18342662.587 5521562.090 16849929.098 10 0 61001 38700.00000 0 19925288.666 6632151.528 14474867.994 10 0 61001 39600.00000 0 21332435.982 7445736.275 11818556.517 10 0 61001 40500.00000 0 22504356.441 7976862.051 8932419.655 10 0 61001 41400.00000 0 23387522.456 8251786.824 5872444.638 10 0 61001 42300.00000 0 23936912.211 8307130.615 2698098.721 10 0 61001 43200.00000 0 24117961.727 8188086.641 -528829.290 10 0 61001 44100.00000 0 23908098.896 7946269.162 -3745440.908 10 0 61001 45000.00000 0 23297791.923 7637289.585 -6888968.545 10 0 61001 45900.00000 0 22291065.139 7318164.755 -9898019.009 10 0 61001 46800.00000 0 20905457.987 7044669.214 -12713793.616 10 0 61001 47700.00000 0 19171427.034 6868746.067 -15281258.771 10 0 61001 48600.00000 0 17131215.144 6836088.912 -17550241.955 10 0 61001 49500.00000 0 14837235.119 6983999.949 -19476429.666 10 0 61001 50400.00000 0 12350036.254 7339617.353 -21022246.137 10 0 61001 51300.00000 0 9735940.243 7918588.830 -22157594.566 10 0 61001 52200.00000 0 7064446.956 8724248.669 -22860445.823 10 0 61001 53100.00000 0 4405520.239 9747333.618 -23117263.140 10 0 61001 54000.00000 0 1826868.509 10966249.394 -22923255.058 10 0 61001 54900.00000 0 -608665.413 12347875.922 -22282452.689 10 0 61001 55800.00000 0 -2845496.084 13848876.150 -21207611.118 10 0 61001 56700.00000 0 -4837369.638 15417452.002 -19719938.415 10 0 61001 57600.00000 0 -6549035.303 16995472.111 -17848659.207 10 0 61001 58500.00000 0 -7957446.659 18520880.577 -15630422.936 10 0 61001 59400.00000 0 -9052445.331 19930284.506 -13108569.951 10 0 61001 60300.00000 0 -9836901.883 21161611.063 -10332271.072 10 0 61001 61200.00000 0 -10326311.519 22156722.369 -7355558.595 10 0 61001 62100.00000 0 -10547865.055 22863878.900 -4236268.491 10 0 61001 63000.00000 0 -10539037.311 23239948.959 -1034914.927 10 0 61001 63900.00000 0 -10345754.872 23252272.827 2186480.752 10 0 61001 64800.00000 0 -10020222.181 22880105.035 5365584.022 10 0 61001 65700.00000 0 -9618498.559 22115575.948 8440941.573 10 0 61001 66600.00000 0 -9197928.411 20964133.957 11353153.852 10 0 61001 67500.00000 0 -8814532.350 19444450.955 14046004.392 10 0 61001 68400.00000 0 -8520467.960 17587795.737 16467525.713 10 0 61001 69300.00000 0 -8361665.562 15436901.531 18570982.941 10 0 61001 70200.00000 0 -8375736.825 13044374.146 20315758.081 10 0 61001 71100.00000 0 -8590242.672 10470705.622 21668119.671 10 0 61001 72000.00000 0 -9021392.190 7781973.925 22601864.531 10 0 61001 72900.00000 0 -9673226.791 5047321.733 23098820.407 10 0 61001 73800.00000 0 -10537324.249 2336316.161 23149200.503 10 0 61001 74700.00000 0 -11593036.251 -283703.791 22751803.090 10 0 61001 75600.00000 0 -12808251.527 -2750184.581 21914051.740 10 0 61001 76500.00000 0 -14140655.220 -5007716.211 20651874.166 10 0 61001 77400.00000 0 -15539434.668 -7010094.510 18989420.203 10 0 61001 78300.00000 0 -16947363.116 -8722002.570 16958622.162 10 0 61001 79200.00000 0 -18303176.696 -10120241.251 14598603.596 10 0 61001 80100.00000 0 -19544147.003 -11194456.683 11954945.492 10 0 61001 81000.00000 0 -20608742.469 -11947333.170 9078821.860 10 0 61001 81900.00000 0 -21439266.916 -12394241.988 6026019.669 10 0 61001 82800.00000 0 -21984363.439 -12562359.415 2855860.993 10 0 61001 83700.00000 0 -22201276.446 -12489290.021 -369952.154 10 0 61001 84600.00000 0 -22057774.035 -12221252.691 -3588547.571 10 0 61001 85500.00000 0 -21533646.688 -11810906.099 -6737122.596 10 0 61002 0.00000 0 -20621716.091 -11314906.491 -9754187.772 10 0 61002 900.00000 0 -19328308.084 -10791302.426 -12580789.776 10 0 61002 1800.00000 0 -17673168.688 -10296879.622 -15161683.412 10 0 61002 2700.00000 0 -15688823.418 -9884569.953 -17446432.923 10 0 61002 3600.00000 0 -13419407.043 -9601037.559 -19390414.998 10 0 61002 4500.00000 0 -10919012.463 -9484546.394 -20955703.822 10 0 61002 5400.00000 0 -8249628.667 -9563201.473 -22111819.469 10 0 61002 6300.00000 0 -5478755.258 -9853639.516 -22836324.434 10 0 61002 7200.00000 0 -2676794.784 -10360225.016 -23115256.641 10 0 61002 8100.00000 0 85666.822 -11074785.550 -22943390.999 10 0 61002 9000.00000 0 2740577.073 -11976896.818 -22324325.392 10 0 61002 9900.00000 0 5225017.135 -13034704.118 -21270390.715 10 0 61002 10800.00000 0 7483577.111 -14206244.021 -19802388.252 10 0 61002 11700.00000 0 9470408.312 -15441208.862 -17949161.180 10 0 61002 12600.00000 0 11150868.564 -16683078.016 -15747010.172 10 0 61002 13500.00000 0 12502694.378 -17871524.837 -13238966.106 10 0 61002 14400.00000 0 13516653.981 -18944996.911 -10473935.413 10 0 61002 15300.00000 0 14196657.288 -19843360.470 -7505735.941 10 0 61002 16200.00000 0 14559321.671 -20510497.771 -4392042.997 10 0 61002 17100.00000 0 14633015.072 -20896748.700 -1193266.669 10 0 61002 18000.00000 0 14456419.562 -20961094.974 2028617.506 10 0 61002 18900.00000 0 14076677.960 -20672996.496 5211261.952 10 0 61002 19800.00000 0 13547203.036 -20013804.254 8293141.962 10 0 61002 20700.00000 0 12925242.120 -18977691.966 11214729.834 10 0 61002 21600.00000 0 12269299.468 -17572068.641 13919626.825 10 0 61002 22500.00000 0 11636523.972 -15817455.573 16355632.632 10 0 61002 23400.00000 0 11080170.685 -13746833.068 18475733.481 10 0 61002 24300.00000 0 10647241.135 -11404483.644 20238991.669 10 0 61002 25200.00000 0 10376399.814 -8844378.606 21611321.174 10 0 61002 26100.00000 0 10296252.812 -6128173.198 22566135.964 10 0 61002 27000.00000 0 10424059.768 -3322891.119 23084859.702 10 0 61002 27900.00000 0 10764932.846 -498391.650 23157287.713 10 0 61002 28800.00000 0 11311556.757 2275278.492 22781794.308 10 0 61002 29700.00000 0 12044442.831 4930541.583 21965380.903 10 0 61002 30600.00000 0 12932708.467 7404845.861 20723562.771 10 0 61002 31500.00000 0 13935351.791 9643018.723 19080094.856 10 0 61002 32400.00000 0 15002970.756 11599319.456 17066539.735 10 0 61002 33300.00000 0 16079857.243 13239106.418 14721683.632 10 0 61002 34200.00000 0 17106380.406 14540048.713 12090809.358 10 0 61002 35100.00000 0 18021560.635 15492830.684 9224837.988 10 0 61002 36000.00000 0 18765726.514 16101318.340 6179354.101 10 0 61002 36900.00000 0 19283142.460 16382179.130 3013532.306 10 0 61002 37800.00000 0 19524494.978 16363969.667 -211014.602 10 0 61002 38700.00000 0 19449130.433 16085728.811 -3431443.231 10 0 61002 39600.00000 0 19026947.064 15595135.098 -6584918.376 10 0 61002 40500.00000 0 18239858.222 14946306.676 -9609857.326 10 0 61002 41400.00000 0 17082761.921 14197337.864 -12447153.400 10 0 61002 42300.00000 0 15563972.922 13407678.283 -15041352.530 10 0 61002 43200.00000 0 13705096.876 12635467.676 -17341757.690 10 0 61002 44100.00000 0 11540350.249 11934941.592 -19303437.518 10 0 61002 45000.00000 0 9115353.891 11354020.076 -20888117.698 10 0 61002 45900.00000 0 6485450.948 10932183.335 -22064936.526 10 0 61002 46800.00000 0 3713620.266 10698725.667 -22811049.275 10 0 61002 47700.00000 0 868073.765 10671462.185 -23112069.493 10 0 61002 48600.00000 0 -1980360.507 10855942.946 -22962339.139 10 0 61002 49500.00000 0 -4760959.253 11245206.966 -22365023.230 10 0 61002 50400.00000 0 -7405814.314 11820085.139 -21332028.454 10 0 61002 51300.00000 0 -9852419.344 12550037.502 -19883748.892 10 0 61002 52200.00000 0 -12046025.337 13394487.531 -18048645.422 10 0 61002 53100.00000 0 -13941667.967 14304595.128 -15862668.701 10 0 61002 54000.00000 0 -15505784.080 15225391.713 -13368538.533 10 0 61002 54900.00000 0 -16717352.452 16098185.857 -10614895.062 10 0 61002 55800.00000 0 -17568514.120 16863137.062 -7655339.552 10 0 61002 56700.00000 0 -18064649.671 17461888.699 -4547384.345 10 0 61002 57600.00000 0 -18223913.556 17840149.298 -1351332.999 10 0 61002 58500.00000 0 -18076247.997 17950114.076 1870887.302 10 0 61002 59400.00000 0 -17661920.484 17752625.833 5056918.567 10 0 61002 60300.00000 0 -17029648.176 17218985.630 8145167.393 10 0 61002 61200.00000 0 -16234389.161 16332338.556 11075980.681 10 0 61002 62100.00000 0 -15334893.658 15088577.665 13792780.173 10 0 61002 63000.00000 0 -14391117.558 13496729.083 16243135.467 10 0 61002 63900.00000 0 -13461605.761 11578802.530 18379756.526 10 0 61002 64800.00000 0 -12600953.501 9369113.170 20161388.412 10 0 61002 65700.00000 0 -11857450.281 6913102.003 21553592.810 10 0 61002 66600.00000 0 -11271003.379 4265702.141 22529402.828 10 0 61002 67500.00000 0 -10871426.405 1489316.487 23069839.702 10 0 61002 68400.00000 0 -10677163.593 -1348512.101 23164282.162 10 0 61002 69300.00000 0 -10694502.993 -4177644.524 22810681.424 10 0 61002 70200.00000 0 -10917311.998 -6928000.616 22015617.162 10 0 61002 71100.00000 0 -11327307.522 -9532218.401 20794192.141 10 0 61002 72000.00000 0 -11894851.420 -11928209.272 19169765.860 10 0 61002 72900.00000 0 -12580240.073 -14061504.453 17173530.108 10 0 61002 73800.00000 0 -13335436.433 -15887295.858 14843932.259 10 0 61002 74700.00000 0 -14106174.011 -17372086.150 12225954.978 10 0 61002 75600.00000 0 -14834346.046 -18494878.269 9370264.050 10 0 61002 76500.00000 0 -15460580.250 -19247853.274 6332238.976 10 0 61002 77400.00000 0 -15926890.690 -19636506.398 3170903.940 10 0 61002 78300.00000 0 -16179294.002 -19679233.882 -52220.662 10 0 61002 79200.00000 0 -16170277.670 -19406386.569 -3274323.581 10 0 61002 80100.00000 0 -15861013.508 -18858829.241 -6432540.533 10 0 61002 81000.00000 0 -15223219.759 -18086066.270 -9465198.813 10 0 61002 81900.00000 0 -14240589.879 -17144013.311 -12313042.445 10 0 61002 82800.00000 0 -12909724.533 -16092510.468 -14920411.655 10 0 61002 83700.00000 0 -11240524.750 -14992683.902 -17236351.398 10 0 61002 84600.00000 0 -9256027.579 -13904269.593 -19215625.199 10 0 61002 85500.00000 0 -6991689.830 -12883014.659 -20819612.761 10 0 61003 0.00000 0 -4494149.690 -11978268.121 -22017072.508 10 0 61003 900.00000 0 -1819516.978 -11230863.989 -22784754.102 10 0 61003 1800.00000 0 968732.227 -10671388.159 -23107847.360 10 0 61003 2700.00000 0 3802171.859 -10318900.765 -22980261.448 10 0 61003 3600.00000 0 6610047.673 -10180168.477 -22404728.106 10 0 61003 4500.00000 0 9321995.417 -10249437.300 -21392728.913 10 0 61003 5400.00000 0 11870741.175 -10508753.598 -19964249.392 10 0 61003 6300.00000 0 14194671.252 -10928817.518 -18147366.387 10 0 61003 7200.00000 0 16240165.041 -11470330.424 -15977678.435 10 0 61003 8100.00000 0 17963594.931 -12085777.122 -13497591.811 10 0 61003 9000.00000 0 19332911.823 -12721565.686 -10755477.590 10 0 61003 9900.00000 0 20328752.578 -13320432.963 -7804717.365 10 0 61003 10800.00000 0 20945026.099 -13824013.271 -4702657.160 10 0 61003 11700.00000 0 21188956.636 -14175461.496 -1509490.492 10 0 61003 12600.00000 0 21080585.575 -14322020.158 1712907.406 10 0 61003 13500.00000 0 20651755.300 -14217422.937 4902171.668 10 0 61003 14400.00000 0 19944619.949 -13824034.512 7996643.580 10 0 61003 15300.00000 0 19009747.042 -13114637.934 10936547.745 10 0 61003 16200.00000 0 17903890.304 -12073795.681 13665129.131 10 0 61003 17100.00000 0 16687526.978 -10698728.267 16129729.563 10 0 61003 18000.00000 0 15422262.029 -8999674.142 18282784.620 10 0 61003 18900.00000 0 14168206.551 -6999715.790 20082723.571 10 0 61003 19800.00000 0 12981438.283 -4734078.452 21494756.791 10 0 61003 20700.00000 0 11911648.539 -2248929.205 22491537.095 10 0 61003 21600.00000 0 11000072.107 400275.845 23053683.460 10 0 61003 22500.00000 0 10277785.143 3150830.394 23170157.799 10 0 61003 23400.00000 0 9764441.339 5935121.176 22838487.666 10 0 61003 24300.00000 0 9467498.956 8683181.620 22064830.083 10 0 61003 25200.00000 0 9381971.608 11325352.964 20863874.113 10 0 61003 26100.00000 0 9490714.438 13794944.918 19258582.338 10 0 61003 27000.00000 0 9765235.476 16030787.239 17279774.066 10 0 61003 27900.00000 0 10167000.188 17979567.194 14965555.911 10 0 61003 28800.00000 0 10649176.531 19597855.688 12360608.291 10 0 61003 29700.00000 0 11158748.896 20853736.922 9515339.422 10 0 61003 30600.00000 0 11638913.165 21727972.119 6484921.284 10 0 61003 31500.00000 0 12031652.315 22214646.789 3328225.047 10 0 61003 32400.00000 0 12280383.392 22321272.441 106676.027 10 0 61003 33300.00000 0 12332562.618 22068336.656 -3116949.397 10 0 61003 34200.00000 0 12142136.280 21488319.038 -6279760.553 10 0 61003 35100.00000 0 11671730.915 20624213.767 -9319997.323 10 0 61003 36000.00000 0 10894486.952 19527621.014 -12178256.837 10 0 61003 36900.00000 0 9795455.065 18256488.539 -14798675.791 10 0 61003 37800.00000 0 8372493.219 16872600.218 -17130043.041 10 0 61003 38700.00000 0 6636624.042 15438919.414 -19126818.671 10 0 61003 39600.00000 0 4611835.626 14016901.448 -20750037.828 10 0 61003 40500.00000 0 2334333.084 12663890.629 -21968080.444 10 0 61003 41400.00000 0 -148728.055 11430713.312 -22757291.121 10 0 61003 42300.00000 0 -2780973.101 10359569.579 -23102436.943 10 0 61003 43200.00000 0 -5498930.788 9482312.766 -22996994.752 10 0 61003 44100.00000 0 -8234457.381 8819188.848 -22443263.162 10 0 61003 45000.00000 0 -10917359.870 8378087.548 -21452298.422 10 0 61003 45900.00000 0 -13478107.913 8154334.777 -20043676.874 10 0 61003 46800.00000 0 -15850520.946 8131032.690 -18245090.308 10 0 61003 47700.00000 0 -17974318.437 8279930.314 -16091783.754 10 0 61003 48600.00000 0 -19797427.694 8562785.257 -13625848.274 10 0 61003 49500.00000 0 -21277954.350 8933156.486 -10895383.946 10 0 61003 50400.00000 0 -22385735.247 9338550.351 -7953550.604 10 0 61003 51300.00000 0 -23103411.363 9722827.642 -4857525.761 10 0 61003 52200.00000 0 -23426978.713 10028769.092 -1667390.600 10 0 61003 53100.00000 0 -23365797.040 10200690.703 1555033.952 10 0 61003 54000.00000 0 -22942058.648 10186998.842 4747378.586 10 0 61003 54900.00000 0 -22189741.960 9942578.151 7847921.781 10 0 61003 55800.00000 0 -21153095.392 9430912.783 10796768.421 10 0 61003 56700.00000 0 -19884716.055 8625852.936 13536989.314 10 0 61003 57600.00000 0 -18443304.015 7512953.576 16015701.119 10 0 61003 58500.00000 0 -16891185.545 6090329.969 18185067.565 10 0 61003 59400.00000 0 -15291707.758 4368994.425 20003204.493 10 0 61003 60300.00000 0 -13706611.759 2372659.742 21434973.135 10 0 61003 61200.00000 0 -12193492.019 137016.353 22452647.872 10 0 61003 62100.00000 0 -10803445.921 -2291488.624 23036446.940 10 0 61003 63000.00000 0 -9579009.683 -4857322.241 23174916.586 10 0 61003 63900.00000 0 -8552465.341 -7497920.036 22865161.454 10 0 61003 64800.00000 0 -7744588.592 -10146041.738 22112916.270 10 0 61003 65700.00000 0 -7163889.670 -12732333.764 20932456.338 10 0 61003 66600.00000 0 -6806379.526 -15187994.868 19346346.862 10 0 61003 67500.00000 0 -6655872.313 -17447436.452 17385033.801 10 0 61003 68400.00000 0 -6684813.142 -19450828.312 15086281.747 10 0 61003 69300.00000 0 -6855598.175 -21146424.300 12494467.255 10 0 61003 70200.00000 0 -7122333.357 -22492570.538 9659739.014 10 0 61003 71100.00000 0 -7432959.069 -23459311.080 6637059.244 10 0 61003 72000.00000 0 -7731651.884 -24029522.007 3485143.615 10 0 61003 72900.00000 0 -7961401.954 -24199524.262 265319.670 10 0 61003 73800.00000 0 -8066656.136 -23979147.322 -2959673.957 10 0 61003 74700.00000 0 -7995913.252 -23391239.126 -6126923.234 10 0 61003 75600.00000 0 -7704159.138 -22470641.532 -9174583.789 10 0 61003 76500.00000 0 -7155035.398 -21262673.805 -12043109.098 10 0 61003 77400.00000 0 -6322646.886 -19821188.233 -14676435.576 10 0 61003 78300.00000 0 -5192928.324 -18206280.745 -17023099.158 10 0 61003 79200.00000 0 -3764509.534 -16481754.553 -19037259.468 10 0 61003 80100.00000 0 -2049040.566 -14712445.628 -20679609.782 10 0 61003 81000.00000 0 -70961.499 -12961524.690 -21918153.724 10 0 61003 81900.00000 0 2133274.155 -11287891.061 -22728832.843 10 0 61003 82800.00000 0 4516489.860 -9743769.471 -23095992.638 10 0 61003 83700.00000 0 7022535.630 -8372611.481 -23012678.375 10 0 61003 84600.00000 0 9588422.572 -7207389.663 -22480755.792 10 0 61003 85500.00000 0 12146751.983 -6269355.227 -21510855.586 99